This is the latest recevied weather packets stored in our database for station/object SV9TNF-55. If no packets are shown the sender has not sent any weather packets the latest 10 day(s).
| Time | Temp. | Humidity | Pressure | Rain* | Wind** | Luminosity | Snow |
|---|---|---|---|---|---|---|---|
| 1788451675 | 22.78° C | 35% | 1011.8 hPa | 0 mm | 2.24 m/s, 292° | - | - |
| 1788451075 | 22.78° C | 37% | 1011.8 hPa | 0 mm | 2.68 m/s, 292° | - | - |
| 1788450475 | 23.33° C | 36% | 1011.8 hPa | 0 mm | 3.13 m/s, 292° | - | - |
| 1788449875 | 23.33° C | 35% | 1011.9 hPa | 0 mm | 3.13 m/s, 292° | - | - |
| 1788449275 | 23.33° C | 38% | 1011.8 hPa | 0 mm | 2.68 m/s, 292° | - | - |
| 1788448676 | 23.33° C | 38% | 1011.8 hPa | 0 mm | 3.13 m/s, 292° | - | - |
| 1788448075 | 23.33° C | 45% | 1011.7 hPa | 0 mm | 2.68 m/s, 292° | - | - |
| 1788447474 | 23.33° C | 43% | 1011.6 hPa | 0 mm | 2.68 m/s, 292° | - | - |
| 1788446875 | 23.33° C | 44% | 1011.8 hPa | 0 mm | 2.68 m/s, 292° | - | - |
| 1788446274 | 23.89° C | 47% | 1011.7 hPa | 0 mm | 2.24 m/s, 315° | - | - |
| 1788445675 | 25° C | 34% | 1011.8 hPa | 0 mm | 3.13 m/s, 315° | - | - |
| 1788445074 | 25° C | 34% | 1011.8 hPa | 0 mm | 3.13 m/s, 315° | - | - |
| 1788444474 | 25° C | 34% | 1011.8 hPa | 0 mm | 3.13 m/s, 315° | - | - |
| 1788443875 | 25° C | 34% | 1011.8 hPa | 0 mm | 3.13 m/s, 315° | - | - |
| 1788443274 | 25° C | 32% | 1011.9 hPa | 0 mm | 3.58 m/s, 315° | - | - |
| 1788442675 | 25.56° C | 32% | 1011.9 hPa | 0 mm | 3.13 m/s, 337° | - | - |
| 1788442073 | 25° C | 36% | 1011.9 hPa | 0 mm | 3.13 m/s, 337° | - | - |
| 1788441474 | 25° C | 35% | 1011.9 hPa | 0 mm | 3.13 m/s, 315° | - | - |
| 1788440874 | 25° C | 37% | 1012 hPa | 0 mm | 3.13 m/s, 292° | - | - |
| 1788440273 | 25.56° C | 38% | 1012 hPa | 0 mm | 2.68 m/s, 337° | - | - |
| 1788439673 | 25° C | 36% | 1012 hPa | 0 mm | 3.13 m/s, 315° | - | - |
| 1788439073 | 25° C | 42% | 1012.1 hPa | 0 mm | 3.58 m/s, 337° | - | - |
| 1788438473 | 25° C | 36% | 1012.1 hPa | 0 mm | 2.24 m/s, 315° | - | - |
| 1788437873 | 25° C | 42% | 1012.2 hPa | 0 mm | 3.13 m/s, 337° | - | - |
| 1788437273 | 25° C | 42% | 1012.4 hPa | 0 mm | 3.13 m/s, 337° | - | - |
* Rain latest hour (hover to see other rain measurements)
** Current wind speed in m/s (hover to see current wind gust speed)